Temperature
15 14 14 14 14 14 14 14 14 13 13 13 13 12 12 12 12 12 12 12 12 12 12 13 13 13 13 13 13 13 13 13 13 13 13 13 13 13
14 14 14 14 14 14 14 14 14 14 13 13 13 12 12 12 12 12 12 12 12 12 12 12 12 12 12 12 12 12 12 12 12 13 13 12 12 12
14 14 14 14 14 14 14 14 13 13 13 13 12 12 12 12 12 12 12 12 12 12 12 12 12 12 12 12 12 12 12 12 12 12 12 12 12 12
14 14 14 14 14 14 13 13 13 13 13 13 12 12 12 12 12 11 11 11 11 11 11 11 11 11 11 11 12 11 11 11 11 11 11 11 11 11
14 14 14 14 13 13 13 13 13 13 13 12 12 12 12 11 11 11 11 11 11 11 11 11 11 11 11 11 11 11 11 11 11 11 11 11 11 11
14 13 13 13 13 13 13 13 13 13 12 12 12 12 11 11 11 11 11 11 11 11 11 11 11 11 11 11 11 10 10 10 10 10 10 10 10 10
13 13 13 13 13 13 13 13 12 12 12 12 12 11 11 11 11 11 11 11 11 10 10 10 10 10 10 10 10 10 10 10 10 10 10 10 10 10
13 13 13 13 13 13 13 12 12 12 12 12 11 11 11 11 11 10 10 10 10 10 10 10 10 10 10 10 10 9 9 9 9 9 9 9 9 9
13 13 13 13 12 12 12 12 12 12 11 11 11 11 11 10 10 10 10 10 10 10 10 10 10 10 9 9 9 9 9 9 9 9 9 9 9 9
13 13 13 12 12 12 12 12 12 11 11 11 11 11 10 10 10 10 10 10 10 10 9 9 9 9 9 9 9 9 9 8 8 8 8 8 8 8
12 12 12 12 12 12 11 11 11 11 11 11 10 10 10 10 10 10 10 9 9 9 9 9 9 8 9 9 8 8 8 8 8 8 8 8 8 8
12 12 12 12 12 11 11 11 11 11 10 10 10 10 10 9 9 9 9 9 9 8 8 8 8 8 8 8 8 8 8 7 7 7 7 7 7 7
12 12 12 11 11 11 11 10 10 10 10 10 10 9 9 9 9 9 9 8 8 8 8 7 7 7 7 7 7 7 7 7 7 7 7 7 7 6
11 11 11 11 11 10 10 10 10 9 9 9 9 9 9 9 9 8 8 8 8 8 7 7 7 6 6 6 6 7 7 6 6 6 6 6 6 6
11 11 10 10 10 10 10 10 9 9 9 9 9 8 8 8 8 8 8 8 7 7 7 7 6 6 6 6 6 6 6 6 6 6 6 6 6 5
11 10 10 10 10 10 9 9 9 8 8 8 8 8 8 8 7 7 7 7 7 7 7 6 6 6 6 6 5 5 5 5 5 5 5 5 5 5
10 10 10 10 10 9 9 9 8 8 8 8 8 7 7 7 7 7 6 6 6 6 6 6 6 5 5 5 5 5 5 5 5 4 4 4 4 4
10 10 10 9 9 9 9 8 8 8 7 7 7 7 7 6 6 6 6 6 6 5 5 5 5 5 5 5 5 5 4 4 4 4 4 4 4 4
10 9 9 9 8 8 8 8 8 7 7 7 6 6 6 6 6 5 5 5 5 5 5 4 4 4 4 4 4 4 4 4 4 4 3 3 3 3
9 9 9 8 8 8 7 7 7 7 7 6 6 6 5 5 5 5 5 5 4 4 4 4 4 4 3 3 3 4 4 3 3 3 3 3 3 3
9 8 8 8 8 7 7 7 7 6 6 6 6 5 5 5 5 5 4 4 4 4 3 4 3 3 3 3 3 3 3 3 3 2 2 2 2 2
8 8 8 7 7 7 7 6 6 6 6 5 5 5 5 4 4 4 4 4 3 3 3 3 3 3 3 3 2 2 3 3 2 2 2 2 1 1
8 7 7 7 7 6 6 6 6 5 5 5 5 4 4 4 4 4 3 3 3 3 3 2 3 2 2 2 2 2 2 2 2 2 2 2 1 1
Wind_Speed
4 4 3 2 2 2 2 3 4 2 1 2 2 3 3 3 5 6 6 7 8 8 9 9 9 9 9 9 10 10 10 10 10 9 9 8 8 8
3 4 4 3 3 3 3 2 3 4 2 1 1 1 2 3 4 5 6 7 7 8 8 9 9 9 9 9 9 10 10 10 9 9 8 8 8 8
3 4 4 3 3 3 3 3 3 3 3 1 1 2 2 3 3 4 4 5 6 7 7 8 8 8 8 9 9 9 10 9 9 9 10 9 9 9
2 3 3 3 4 3 3 3 2 2 3 2 1 2 2 1 2 2 3 4 4 6 7 7 7 7 8 9 9 9 9 9 9 9 9 9 8 8
2 3 2 4 3 3 3 3 2 3 3 3 0 1 2 2 3 3 4 4 4 5 6 6 6 7 7 8 8 8 8 8 8 7 7 7 7 7
2 2 2 3 3 3 3 3 3 4 3 3 2 1 1 2 2 2 3 3 3 5 5 5 6 7 7 7 7 7 7 7 7 6 6 6 7 7
2 2 2 3 3 3 3 3 3 3 3 2 1 1 1 2 1 1 1 3 3 3 3 4 5 4 5 6 6 6 6 6 6 6 6 6 6 7
2 1 2 3 4 5 5 5 5 4 3 2 1 1 1 1 1 0 1 2 3 3 2 3 3 3 4 5 6 6 6 6 6 6 6 6 6 7
3 2 2 2 3 3 4 5 4 4 4 4 3 2 2 2 1 0 1 0 2 3 2 3 3 3 5 6 7 6 6 6 6 7 7 7 7 7
2 2 2 1 2 3 3 3 3 2 1 2 3 2 2 2 2 2 1 0 2 3 1 2 3 3 5 6 7 7 7 7 7 7 7 7 7 7
2 2 2 2 1 4 4 3 3 3 3 3 2 2 2 2 2 2 2 2 3 3 2 0 2 4 4 4 6 7 7 7 8 8 8 8 8 7
2 2 2 2 2 4 4 3 2 1 2 3 4 4 4 3 3 2 2 0 1 2 2 0 2 3 4 3 4 6 7 7 8 9 9 9 8 6
1 1 1 2 3 4 4 3 2 1 1 2 2 3 3 3 3 2 0 1 1 3 3 1 2 2 2 4 5 5 5 5 6 7 8 9 8 5
2 1 1 3 3 3 2 3 4 4 3 3 2 2 2 2 3 3 3 2 2 3 4 1 1 2 3 4 5 4 4 5 5 5 6 8 8 8
2 3 3 4 4 3 4 4 4 3 2 2 1 1 1 2 2 3 5 5 5 5 4 3 2 2 2 4 4 4 4 4 4 4 5 5 4 5
3 3 4 5 4 3 3 3 2 2 2 1 1 1 1 2 2 2 3 3 4 5 7 6 4 2 3 4 4 5 4 4 4 5 5 5 6 6
4 3 3 3 2 2 2 2 1 1 1 0 0 1 2 2 2 2 2 2 2 4 6 6 7 5 4 4 4 5 4 4 4 4 4 5 5 6
6 3 2 1 1 1 0 1 1 1 1 0 0 0 1 2 2 3 2 2 3 4 4 5 5 5 5 4 4 4 4 4 5 4 4 4 6 6
4 3 2 2 2 1 1 1 1 1 1 0 0 1 1 2 2 3 3 3 4 4 5 4 3 3 5 7 6 4 4 5 4 4 4 4 6 7
3 3 3 3 2 2 2 2 1 1 1 1 1 1 2 2 3 3 3 4 4 5 5 4 3 3 4 5 5 6 7 4 4 5 5 5 6 9
4 3 3 3 3 3 3 2 2 2 2 2 2 2 2 2 3 4 4 6 5 4 5 6 6 7 4 2 4 5 5 8 7 5 5 5 6 5
4 4 4 3 3 3 3 2 2 2 3 3 3 3 3 3 4 5 5 5 5 5 6 6 5 4 2 4 6 7 6 6 8 10 9 8 5 4
4 3 3 3 3 3 3 3 3 3 3 4 4 4 4 4 4 5 5 5 6 6 6 5 4 3 4 4 5 5 7 7 5 6 6 11 12 13
Wind_Direction
76 79 77 58 59 71 105 135 137 123 339 318 340 348 14 56 56 60 55 45 40 35 40 45 45 48 46 40 36 31 26 30 35 38 38 35 32 31
75 75 65 54 57 59 79 91 117 137 150 279 284 302 7 57 52 55 52 41 36 38 45 44 47 49 46 40 36 33 31 32 33 34 35 34 34 32
67 77 65 60 62 48 62 76 86 111 120 317 347 356 29 41 38 44 49 45 34 31 37 39 40 43 40 36 34 34 33 30 31 34 33 33 31 28
79 78 65 72 64 54 68 70 78 100 126 122 351 359 14 13 38 41 35 33 29 25 29 31 32 32 30 26 31 31 28 27 28 29 27 24 22 21
114 108 94 92 74 65 73 73 72 78 91 117 56 360 9 16 31 22 28 20 11 9 17 21 23 23 22 23 24 24 22 22 23 24 21 17 14 12
106 113 115 122 128 110 90 88 92 82 80 93 76 18 5 350 36 19 4 357 356 7 11 14 14 12 10 12 14 15 14 15 15 12 10 10 8 6
85 88 101 116 122 120 114 120 111 100 91 91 82 36 359 1 342 321 357 336 336 352 354 359 2 3 351 348 353 358 358 360 360 358 355 355 356 355
120 89 74 70 84 87 93 109 128 130 133 126 131 151 265 280 298 353 23 6 328 329 359 331 359 338 335 334 334 337 341 343 343 343 344 344 343 343
135 131 108 82 85 87 76 72 71 101 142 152 159 203 216 232 197 26 347 290 272 292 340 317 325 317 323 325 328 327 324 325 328 330 331 333 334 335
126 143 133 110 122 124 102 68 42 26 71 130 170 205 214 206 188 186 204 300 312 319 359 307 317 311 321 325 324 322 323 321 320 319 320 321 321 322
94 106 122 127 137 127 111 91 44 4 35 69 83 63 51 63 93 75 43 39 340 315 321 277 305 314 310 311 327 330 328 323 320 318 315 316 314 315
65 49 73 103 124 126 126 122 97 334 19 32 35 31 35 35 40 106 162 128 316 301 288 297 307 330 325 307 324 333 332 325 322 321 319 318 317 323
119 32 348 73 97 115 124 138 161 145 90 66 40 19 18 18 13 5 204 186 225 268 274 250 295 308 291 301 310 312 317 321 328 327 326 323 319 316
160 179 146 103 96 94 97 89 89 89 79 65 51 22 2 342 334 350 346 317 265 263 277 258 269 272 292 300 299 305 308 311 316 317 322 325 325 319
150 142 118 96 88 72 67 76 83 85 86 73 48 325 302 305 348 5 3 3 360 347 335 318 284 279 265 272 285 295 305 304 309 309 316 320 310 312
116 108 97 90 81 62 51 54 66 100 120 147 249 293 332 356 353 350 348 347 349 334 343 341 318 284 286 278 275 287 290 287 299 303 304 304 309 306
119 83 66 59 50 34 28 26 36 50 62 44 63 360 352 354 339 340 348 347 336 324 326 331 339 323 275 269 286 286 290 290 284 292 300 302 296 301
119 113 116 119 130 134 78 1 0 351 336 24 34 358 340 334 332 336 342 335 317 310 309 312 327 337 336 310 254 270 289 290 293 295 290 294 297 297
125 148 163 181 194 198 199 206 247 265 269 262 292 305 320 323 326 322 322 323 313 306 304 309 322 332 325 315 303 290 288 296 300 298 290 282 285 291
171 182 193 196 198 203 212 222 237 245 245 258 271 280 288 299 308 304 297 299 301 303 305 304 298 293 281 283 286 296 295 287 295 296 296 292 285 289
202 207 207 203 206 210 215 218 221 234 248 249 259 268 274 280 286 286 286 293 297 296 295 292 288 294 292 301 301 298 296 298 293 288 292 300 304 304
208 214 218 213 210 211 213 215 227 239 247 248 258 264 267 268 274 280 283 287 285 283 285 289 299 307 298 288 291 297 301 307 312 309 299 291 289 288
218 219 221 220 218 217 214 220 227 245 247 251 257 262 265 270 273 275 279 280 285 290 295 297 302 298 290 284 286 292 298 305 311 315 308 307 302 295
Height
1568 1568 1568 1568 1568 1568 1568 1568 1568 1567 1567 1567 1566 1565 1564 1562 1561 1559 1557 1555 1553 1550 1547 1544 1542 1541 1541 1541 1540 1539 1537 1535 1533 1532 1533 1533 1533 1533
1569 1568 1568 1568 1568 1568 1567 1567 1567 1567 1566 1566 1566 1565 1564 1562 1561 1560 1558 1556 1553 1551 1548 1545 1543 1542 1541 1541 1540 1539 1537 1535 1534 1533 1533 1533 1532 1532
1569 1569 1568 1568 1568 1568 1567 1567 1567 1567 1566 1566 1565 1565 1564 1562 1561 1560 1558 1556 1554 1552 1549 1547 1545 1544 1543 1542 1540 1539 1537 1536 1534 1533 1533 1532 1531 1531
1569 1569 1569 1569 1568 1568 1567 1567 1567 1566 1566 1565 1565 1564 1563 1562 1561 1560 1558 1556 1554 1553 1551 1549 1547 1545 1544 1542 1540 1539 1537 1536 1534 1533 1532 1531 1531 1530
1569 1569 1569 1569 1568 1568 1568 1567 1567 1566 1565 1565 1564 1563 1562 1562 1560 1559 1558 1556 1554 1553 1551 1549 1547 1546 1544 1542 1540 1539 1537 1535 1534 1533 1531 1530 1529 1528
1569 1569 1569 1569 1568 1568 1567 1567 1566 1566 1565 1564 1563 1562 1562 1561 1560 1558 1557 1555 1553 1552 1550 1549 1547 1545 1543 1542 1540 1538 1536 1535 1533 1532 1530 1529 1528 1526
1569 1569 1569 1568 1568 1567 1567 1566 1566 1565 1564 1563 1562 1561 1561 1560 1559 1557 1556 1554 1553 1551 1549 1548 1546 1544 1542 1541 1539 1537 1535 1534 1532 1530 1529 1527 1526 1524
1568 1568 1568 1568 1567 1567 1566 1565 1565 1564 1563 1562 1561 1560 1559 1559 1557 1556 1555 1553 1551 1551 1548 1546 1545 1543 1541 1539 1537 1536 1534 1532 1530 1529 1527 1525 1523 1522
1568 1568 1567 1567 1566 1566 1565 1564 1564 1563 1563 1562 1560 1559 1558 1557 1556 1555 1554 1552 1551 1549 1547 1544 1543 1541 1539 1537 1536 1534 1532 1530 1528 1526 1525 1523 1521 1519
1566 1566 1566 1566 1565 1565 1564 1563 1563 1562 1561 1560 1559 1558 1557 1556 1555 1554 1552 1550 1549 1548 1546 1543 1541 1538 1536 1535 1533 1531 1529 1527 1525 1524 1522 1520 1518 1516
1565 1565 1565 1564 1564 1564 1563 1562 1561 1560 1560 1559 1558 1557 1555 1554 1553 1552 1550 1548 1546 1545 1543 1541 1538 1536 1533 1532 1530 1528 1526 1524 1523 1521 1519 1517 1515 1513
1563 1563 1563 1563 1563 1562 1561 1560 1559 1559 1558 1557 1556 1555 1554 1552 1551 1550 1548 1546 1544 1542 1541 1539 1536 1534 1530 1528 1527 1525 1523 1521 1519 1517 1515 1513 1511 1509
1562 1561 1561 1561 1561 1560 1560 1559 1558 1557 1556 1555 1554 1553 1552 1550 1549 1548 1547 1545 1543 1540 1539 1536 1534 1531 1529 1525 1523 1521 1519 1517 1515 1513 1511 1509 1507 1505
1560 1560 1559 1559 1559 1558 1558 1557 1556 1555 1554 1553 1552 1551 1550 1548 1547 1546 1545 1543 1541 1539 1536 1534 1531 1529 1526 1522 1519 1517 1516 1513 1511 1509 1507 1505 1503 1500
1558 1558 1557 1557 1556 1556 1556 1555 1554 1553 1552 1551 1550 1549 1548 1547 1545 1543 1542 1540 1538 1536 1533 1531 1528 1525 1523 1520 1516 1513 1511 1509 1507 1505 1502 1500 1497 1495
1555 1555 1555 1555 1554 1554 1553 1552 1552 1551 1550 1549 1548 1547 1546 1544 1542 1540 1538 1536 1534 1532 1530 1528 1525 1522 1519 1516 1513 1510 1508 1505 1503 1501 1498 1495 1493 1490
1553 1553 1553 1552 1552 1551 1551 1550 1549 1549 1548 1546 1545 1544 1542 1541 1539 1537 1535 1533 1531 1528 1525 1523 1521 1518 1515 1513 1509 1507 1504 1502 1499 1496 1493 1490 1488 1485
1551 1550 1550 1550 1549 1549 1548 1548 1547 1546 1545 1544 1542 1541 1539 1538 1536 1534 1532 1530 1528 1525 1522 1519 1516 1513 1511 1508 1507 1503 1501 1498 1495 1492 1489 1485 1482 1480
1548 1547 1547 1547 1547 1547 1546 1545 1545 1544 1543 1541 1540 1538 1537 1535 1533 1531 1529 1526 1524 1521 1519 1516 1513 1510 1507 1504 1502 1501 1497 1494 1491 1488 1485 1481 1477 1473
1544 1544 1544 1545 1544 1544 1543 1543 1542 1541 1539 1538 1536 1535 1533 1532 1530 1527 1525 1523 1520 1518 1515 1513 1510 1508 1505 1502 1498 1495 1494 1490 1486 1483 1479 1476 1472 1469
1541 1542 1542 1541 1541 1541 1540 1539 1538 1537 1536 1534 1533 1531 1530 1528 1526 1524 1521 1519 1517 1514 1511 1508 1506 1504 1501 1498 1494 1490 1489 1487 1483 1479 1474 1470 1466 1462
1538 1538 1538 1538 1538 1537 1536 1536 1534 1533 1532 1530 1529 1527 1526 1524 1522 1519 1517 1514 1512 1509 1507 1504 1502 1499 1496 1493 1489 1486 1483 1481 1478 1475 1472 1468 1463 1458
1535 1534 1534 1534 1534 1533 1532 1531 1530 1529 1528 1526 1524 1523 1521 1519 1517 1515 1512 1510 1507 1505 1502 1499 1496 1494 1491 1489 1485 1481 1478 1475 1472 1468 1466 1463 1460 1456